Weather History for KCWV - October, 2012

Change the Weather History Date:

Wednesday, October 10, 2012

  Actual Average (KSAV) Record (KSAV)
Temperature  
Mean Temperature 66 °F 70 °F  
Max Temperature 77 °F 80 °F 92 °F (1941)
Min Temperature 55 °F 60 °F 36 °F (2000)
Degree Days  
Heating Degree Days 0 1  
Month to date heating degree days 8  
Since 1 July heating degree days 10  
Cooling Degree Days 1 6  
Month to date cooling degree days 70  
Year to date cooling degree days 2336  
Growing Degree Days 16 (Base 50)    
Moisture  
Dew Point 60 °F    
Average Humidity 90    
Maximum Humidity 100    
Minimum Humidity 57    
Precipitation  
Precipitation 0.00 in 0.14 in 5.68 in (1990)
Month to date precipitation 1.49  
Year to date precipitation 40.44  
Sea Level Pressure  
Sea Level Pressure 30.12 in    
Wind  
Wind Speed 2 mph (WNW)    
Max Wind Speed 9 mph    
Max Gust Speed -    
Visibility 6 miles    
Events Fog    
T = Trace of Precipitation, MM = Missing Value Source: NWS Daily Summary

Daily Weather History Graph

Daily Weather History Graph

Search for Another Location

Airport or City:

Trip Planner

Search our weather history database for the weather conditions in past years. The results will help you decide how hot, cold, wet, or windy it might be!

Date:

Astronomy

Oct. 10, 2012 Rise Set
Actual Time 7:27 AM EDT 7:00 PM EDT
Civil Twilight 7:03 AM EDT 7:24 PM EDT
Nautical Twilight 6:34 AM EDT 7:53 PM EDT
Astronomical Twilight 6:06 AM EDT 8:21 PM EDT
Moon 2:20 AM EDT (10/10) 3:47 PM EDT (10/10)
Length of Visible Light 12h 21m
Length of Day
11h 32m
Waning Crescent, 27% of the Moon is Illuminated
Oct 10
Waning Crescent
Oct 15
New
Oct 21
First Quarter
Oct 29
Full
Nov 6
Last Quarter

Hourly Weather History & Observations

Time (EDT) Temp. Dew Point Humidity Pressure Visibility Wind Dir Wind Speed Gust Speed Precip Events Conditions
12:15 AM 55.4 °F 55.4 °F 100% 30.12 in 5.0 mi Calm Calm - N/A   Clear
12:35 AM 55.4 °F 55.4 °F 100% 30.12 in 5.0 mi Calm Calm - N/A   Clear
12:55 AM 55.4 °F 55.4 °F 100% 30.12 in 5.0 mi Calm Calm - N/A   Clear
1:15 AM 55.4 °F 55.4 °F 100% 30.12 in 5.0 mi Calm Calm - N/A   Clear
1:35 AM 55.4 °F 55.4 °F 100% 30.12 in 7.0 mi Calm Calm - N/A   Mostly Cloudy
1:55 AM 59.0 °F 59.0 °F 100% 30.12 in 5.0 mi Calm Calm - N/A   Overcast
2:15 AM 59.0 °F 59.0 °F 100% 30.12 in 5.0 mi Calm Calm - N/A   Overcast
2:35 AM 60.8 °F 60.8 °F 100% 30.12 in 7.0 mi Calm Calm - N/A   Overcast
2:55 AM 59.0 °F 59.0 °F 100% 30.12 in 7.0 mi Calm Calm - N/A   Overcast
3:15 AM 59.0 °F 59.0 °F 100% 30.11 in 7.0 mi NNE 3.5 mph - N/A   Overcast
3:35 AM 59.0 °F 59.0 °F 100% 30.11 in 10.0 mi Calm Calm - N/A   Overcast
3:55 AM 57.2 °F 57.2 °F 100% 30.11 in 10.0 mi NE 3.5 mph - N/A   Overcast
4:15 AM 57.2 °F 57.2 °F 100% 30.11 in 10.0 mi Calm Calm - N/A   Overcast
4:35 AM 59.0 °F 59.0 °F 100% 30.10 in 10.0 mi Calm Calm - N/A   Overcast
4:55 AM 57.2 °F 57.2 °F 100% 30.11 in 10.0 mi Calm Calm - N/A   Overcast
5:15 AM 57.2 °F 57.2 °F 100% 30.10 in 5.0 mi Calm Calm - N/A   Overcast
5:35 AM 57.2 °F 57.2 °F 100% 30.10 in 2.0 mi Calm Calm - N/A   Overcast
5:55 AM 57.2 °F 57.2 °F 100% 30.11 in 0.5 mi Calm Calm - N/A Fog Fog
6:15 AM 57.2 °F 57.2 °F 100% 30.11 in 0.5 mi Calm Calm - N/A Fog Fog
6:35 AM 57.2 °F 57.2 °F 100% 30.12 in 0.5 mi Calm Calm - N/A Fog Fog
6:55 AM 57.2 °F 57.2 °F 100% 30.12 in 0.5 mi Calm Calm - N/A Fog Fog
7:15 AM 59.0 °F 59.0 °F 100% 30.12 in 0.5 mi Calm Calm - N/A Fog Fog
7:35 AM 59.0 °F 59.0 °F 100% 30.13 in 0.5 mi Calm Calm - N/A Fog Fog
7:55 AM 59.0 °F 59.0 °F 100% 30.14 in 0.2 mi Calm Calm - N/A Fog Fog
8:35 AM 59.0 °F 59.0 °F 100% 30.15 in 0.5 mi West 3.5 mph - N/A Fog Fog
8:55 AM 60.8 °F 60.8 °F 100% 30.15 in 1.0 mi Calm Calm - N/A   Overcast
9:15 AM 60.8 °F 60.8 °F 100% 30.16 in 0.8 mi Calm Calm - N/A   Overcast
9:35 AM 60.8 °F 60.8 °F 100% 30.16 in 1.5 mi NW 4.6 mph - N/A   Overcast
9:55 AM 60.8 °F 60.8 °F 100% 30.17 in 4.0 mi West 6.9 mph - N/A   Overcast
10:15 AM 60.8 °F 60.8 °F 100% 30.17 in 3.0 mi WNW 4.6 mph - N/A   Overcast
10:35 AM 60.8 °F 60.8 °F 100% 30.17 in 4.0 mi WNW 4.6 mph - N/A   Overcast
10:55 AM 60.8 °F 60.8 °F 100% 30.18 in 5.0 mi West 4.6 mph - N/A   Overcast
11:15 AM 60.8 °F 60.8 °F 100% 30.18 in 5.0 mi NW 3.5 mph - N/A   Overcast
11:35 AM 62.6 °F 62.6 °F 100% 30.18 in 7.0 mi NNW 4.6 mph - N/A   Overcast
12:15 PM 64.4 °F 62.6 °F 94% 30.16 in 10.0 mi Calm Calm - N/A   Overcast
12:35 PM 68.0 °F 62.6 °F 83% 30.15 in 10.0 mi NNW 6.9 mph - N/A   Overcast
12:55 PM 68.0 °F 62.6 °F 83% 30.14 in 10.0 mi NW 4.6 mph - N/A   Mostly Cloudy
1:15 PM 71.6 °F 62.6 °F 73% 30.13 in 10.0 mi West 6.9 mph - N/A   Scattered Clouds
1:35 PM 71.6 °F 62.6 °F 73% 30.12 in 10.0 mi West 8.1 mph - N/A   Scattered Clouds
1:55 PM 73.4 °F 60.8 °F 65% 30.11 in 10.0 mi WNW 6.9 mph - N/A   Scattered Clouds
2:15 PM 73.4 °F 60.8 °F 65% 30.09 in 10.0 mi NW 8.1 mph - N/A   Scattered Clouds
2:35 PM 75.2 °F 60.8 °F 61% 30.08 in 10.0 mi West 5.8 mph - N/A   Clear
2:55 PM 77.0 °F 60.8 °F 57% 30.08 in 10.0 mi West 5.8 mph - N/A   Clear
3:15 PM 77.0 °F 60.8 °F 57% 30.07 in 10.0 mi West 8.1 mph - N/A   Clear
3:35 PM 77.0 °F 60.8 °F 57% 30.07 in 10.0 mi WSW 9.2 mph - N/A   Clear
3:55 PM 77.0 °F 60.8 °F 57% 30.06 in 10.0 mi Calm Calm - N/A   Clear
4:15 PM 77.0 °F 60.8 °F 57% 30.06 in 10.0 mi West 6.9 mph - N/A   Clear
4:35 PM 77.0 °F 60.8 °F 57% 30.06 in 10.0 mi WNW 5.8 mph - N/A   Clear
4:55 PM 77.0 °F 60.8 °F 57% 30.06 in 10.0 mi WNW 9.2 mph - N/A   Clear
5:15 PM 77.0 °F 60.8 °F 57% 30.06 in 10.0 mi WNW 6.9 mph - N/A   Clear
5:35 PM 77.0 °F 60.8 °F 57% 30.06 in 10.0 mi West 6.9 mph - N/A   Clear
5:55 PM 77.0 °F 60.8 °F 57% 30.06 in 10.0 mi WNW 5.8 mph - N/A   Clear
6:15 PM 75.2 °F 62.6 °F 65% 30.07 in 10.0 mi WNW 3.5 mph - N/A   Clear
6:35 PM 73.4 °F 62.6 °F 69% 30.07 in 10.0 mi Calm Calm - N/A   Clear
6:55 PM 69.8 °F 64.4 °F 83% 30.08 in 10.0 mi Calm Calm - N/A   Clear
7:15 PM 68.0 °F 64.4 °F 88% 30.08 in 10.0 mi Calm Calm - N/A   Clear
7:35 PM 64.4 °F 64.4 °F 100% 30.09 in 10.0 mi Calm Calm - N/A   Clear
7:55 PM 64.4 °F 64.4 °F 100% 30.09 in 10.0 mi Calm Calm - N/A   Clear
8:15 PM 64.4 °F 62.6 °F 94% 30.10 in 7.0 mi Calm Calm - N/A   Clear
8:35 PM 62.6 °F 62.6 °F 100% 30.10 in 7.0 mi Calm Calm - N/A   Clear
8:55 PM 62.6 °F 62.6 °F 100% 30.11 in 5.0 mi Calm Calm - N/A   Clear
9:15 PM 62.6 °F 62.6 °F 100% 30.12 in 5.0 mi Calm Calm - N/A   Clear
9:35 PM 60.8 °F 60.8 °F 100% 30.13 in 5.0 mi Calm Calm - N/A   Clear
9:55 PM 60.8 °F 60.8 °F 100% 30.13 in 5.0 mi Calm Calm - N/A   Clear
10:15 PM 60.8 °F 60.8 °F 100% 30.14 in 5.0 mi Calm Calm - N/A   Clear
10:35 PM 59.0 °F 59.0 °F 100% 30.14 in 5.0 mi Calm Calm - N/A   Clear
10:55 PM 59.0 °F 59.0 °F 100% 30.15 in 5.0 mi Calm Calm - N/A   Clear
11:15 PM 59.0 °F 59.0 °F 100% 30.15 in 5.0 mi Calm Calm - N/A   Clear
11:35 PM 59.0 °F 59.0 °F 100% 30.15 in 4.0 mi Calm Calm - N/A   Clear
11:55 PM 57.2 °F 57.2 °F 100% 30.15 in 5.0 mi Calm Calm - N/A   Clear